User: anonymous   Login
Location: Chuathbaluk
(61.5726°N, 159.2454°W)
Time: 02:16:26
(UTC+00:00)
Language:

Courier 1B Rocket - Orbit

View from above orbital plane
View from above orbital plane
View from above satellite
View from above satellite

Ground track
Ground track

The orbit data is extracted from the following two-line orbital elements,

1 00059U 60013B   21337.44204866  .00000103  00000-0  22570-4 0  9998
2 00059  28.2496 355.2008 0189330  88.1288 274.0929 13.52990692 18614
Epoch (UTC): 03 December 2021 10:36:33
Eccentricity: 0.0189330
inclination: 28.2496°
perigee height: 920 km
apogee height: 1202 km
right ascension of ascending node: 355.2008°
argument of perigee: 88.1288°
revolutions per day: 13.52990692
mean anomaly at epoch: 274.0929°
orbit number at epoch: 1861

The dashed part of the orbit path shows where the satellite is in the earth's shadow,  

DLR